Location: Unspecified
(0.0000°N, 0.0000°E)
Time: 16:44:58
(UTC+00:00)

Altair - Pass Details

Date: 21 November 2019
Orbit: 1502 x 1682 km, 47.2° (Epoch: 12 December)

Event Time Altitude Azimuth Distance (km) Brightness Sun altitude
Rises 13:45:59 0° 270° (W) 4,845 10.5 54.5°
Reaches altitude 10° 13:52:50 10° 237° (WSW) 3,903 10.5 53.1°
Maximum altitude 13:55:14 11° 223° (SW) 3,835 10.4 52.6°
Drops below altitude 10° 13:57:40 10° 209° (SSW) 3,926 10.4 52.1°
Sets 14:04:45 0° 176° (S) 4,933 10.4 50.6°
